[[{"header":{"parameterUnit":"m.s-1","parameterCategory":2,"la1":30.2991,"la2":30.254,"lo1":-89.0895,"lo2":-89.0444,"dy":0.0017,"dx":0.0017,"nx":28,"ny":28,"refTime":"2025-04-11T21:00:00:Z","depth":"0","parameterNumber":2,"parameterNumberName":"U-component_of_CURRENTS"},"data":[0,0,0,0,0,0,0,0,0,0,0,0,0,0,0,0,0,0,0,0,0,0,0,0,0,0,0,0,0,0,0,0,0,0,0,0,0,0,0,0,0,0,0,0,0,0,0,0,0,0,0,0,0,0,0,0,0,0,0.1807,0.1807,0,0.1808,0.1808,0.1808,0.1785,0.1785,0.1785,0.1784,0.1681,0.1679,0.1676,0,0,0,0,0,0,0,0,0,0,0,0,0,0.1753,0.1754,0.1807,0.1807,0.1807,0.1808,0.1808,0.1808,0.1785,0.1785,0.1785,0.1784,0.1682,0.1679,0.1676,0,0,0,0,0,0,0,0,0,0,0,0,0,0.1765,0.1754,0.1807,0.1799,0.1798,0.1808,0.1808,0.1808,0.1785,0.1785,0.1785,0.1784,0.1683,0.1679,0.1676,0.1662,0,0,0.1664,0.1663,0,0,0,0,0,0,0,0,0.1764,0.1766,0.18,0.1799,0.1799,0.1799,0.1751,0.1755,0.1786,0.1787,0.1784,0.1784,0.1713,0.1707,0.1705,0.1657,0.1653,0.1664,0.1662,0.166,0.1659,0,0,0,0,0,0,0,0.1763,0.1766,0.1804,0.18,0.18,0.1785,0.1786,0.1752,0.1748,0.1787,0.1786,0.1792,0.1712,0.1709,0.1702,0.1651,0.1664,0.1661,0.1659,0.1657,0.1644,0.1646,0,0,0,0,0,0,0.1772,0.1765,0.1804,0.1804,0.1784,0.1786,0.1787,0.1797,0.1751,0.1745,0.1792,0.1791,0.1716,0.1707,0.1699,0.1732,0.166,0.1657,0.1655,0.1642,0.1645,0.1647,0,0,0,0,0,0,0.1771,0.1776,0.1804,0.1787,0.179,0.1788,0.1799,0.1797,0.1802,0.1757,0.1748,0.18,0.1715,0.1704,0.1692,0.1726,0.1655,0.1652,0.164,0.1643,0.1646,0.1765,0,0,0,0,0,0,0.177,0.1775,0.1784,0.1788,0.1791,0.1824,0.1799,0.1798,0.1808,0.1806,0.176,0.175,0.1714,0.1698,0.1688,0.1719,0.1649,0.1638,0.1641,0.1645,0.1759,0.1772,0.1783,0,0,0,0,0,0.1768,0.1785,0.1784,0.1789,0.1804,0.1825,0.1826,0.182,0.1809,0.182,0.1796,0.1752,0.1714,0.1697,0.1685,0.1716,0.1636,0.164,0.1644,0.1754,0.1769,0.1783,0,0,0,0,0,0,0.1772,0.1785,0.1784,0.1806,0.1821,0.1823,0.1833,0.1829,0.1821,0.1815,0.1768,0.1757,0.176,0.1723,0.1706,0.1724,0.167,0.1672,0.1757,0.1771,0.1783,0.1793,0.1646,0,0,0,0,0,0.1777,0.1791,0.1805,0.1825,0.1833,0.1834,0.1841,0.1841,0.1836,0.1833,0.1806,0.1781,0.1768,0.1758,0.1734,0.1738,0.1745,0.1754,0.1766,0.1776,0.1778,0.1826,0.1843,0.166,0.166,0.166,0,0,0.1785,0.1794,0.1803,0.1826,0.1833,0.1856,0.1837,0.1857,0.1878,0.182,0.1835,0.1814,0.1778,0.1791,0.1789,0.1764,0.1842,0.1782,0.1791,0.1787,0.1832,0.185,0.1866,0.1663,0.1663,0.1662,0,0,0.1812,0.1818,0.1839,0.1854,0.1875,0.1878,0.189,0.1901,0.1907,0.192,0.1894,0.1903,0.1868,0.187,0.186,0.1922,0.19,0.1911,0.1981,0.2028,0.2044,0.2057,0.2134,0.2153,0.1921,0.1922,0.1922,0,0.1821,0.1849,0.1851,0.1878,0.1895,0.1893,0.1925,0.1935,0.1943,0.1958,0.1936,0.194,0.191,0.1945,0.1972,0.1949,0.1979,0.193,0.2046,0.2059,0.2071,0.2145,0.2165,0.1928,0.1927,0.1926,0.1926,0,0.1864,0.1887,0.1904,0.1934,0.1955,0.1982,0.2,0.2021,0.2024,0.2035,0.2069,0.2049,0.2053,0.2057,0.2029,0.2104,0.2102,0.2055,0.2012,0.2097,0.217,0.2188,0.1937,0.1935,0.1933,0.1931,0,0,0.1885,0.1924,0.1932,0.195,0.1986,0.2007,0.2051,0.2092,0.2125,0.2139,0.2191,0.2192,0.2189,0.218,0.2163,0.2206,0.2332,0.2174,0.2173,0.2256,0.2471,0.2605,0.2638,0.2307,0.231,0.2312,0.2505,0,0.1919,0.197,0.1986,0.2037,0.2064,0.2082,0.2122,0.216,0.2186,0.2234,0.2246,0.2278,0.2234,0.2251,0.2291,0.2307,0.2379,0.2286,0.2369,0.2373,0.2487,0.2663,0.2681,0.2865,0.2523,0.2526,0.2528,0,0.1959,0.1985,0.2038,0.2083,0.2098,0.2127,0.2191,0.2227,0.2294,0.2323,0.2368,0.2373,0.2444,0.2389,0.2492,0.2436,0.2471,0.2489,0.2496,0.2586,0.2542,0.2715,0.2911,0.2767,0.2555,0.2553,0.2551,0,0.1967,0.2024,0.2062,0.208,0.2131,0.2159,0.2186,0.2251,0.2289,0.2385,0.2428,0.2499,0.2541,0.2589,0.2645,0.2572,0.2776,0.2671,0.2837,0.2846,0.2861,0.2869,0.2929,0.2771,0.277,0.277,0.2769,0,0.1994,0.2025,0.2065,0.2081,0.2127,0.2165,0.222,0.2268,0.2344,0.242,0.2465,0.2552,0.2591,0.2701,0.2723,0.2888,0.285,0.2908,0.2926,0.291,0.292,0.2789,0.2705,0.2777,0.2775,0.2774,0.2773,0,0.1998,0.2027,0.2066,0.2114,0.2128,0.2159,0.2215,0.227,0.2338,0.2445,0.2485,0.2614,0.2795,0.2873,0.2997,0.3016,0.3082,0.3197,0.3208,0.3226,0.3222,0.3146,0.3164,0.3067,0.3404,0.3409,0.3413,0,0.2001,0.2025,0.2071,0.2094,0.2112,0.2154,0.2197,0.2264,0.2332,0.2498,0.2568,0.2768,0.2939,0.321,0.3335,0.3497,0.3289,0.3573,0.3433,0.3297,0.3221,0.3023,0.292,0.3504,0.3509,0.3512,0.3515,0,0.2005,0.2025,0.2056,0.2102,0.2143,0.2178,0.2242,0.2282,0.2403,0.2503,0.2693,0.2841,0.3176,0.3382,0.363,0.3714,0.3433,0.3656,0.3489,0.3328,0.3137,0.3027,0.3305,0.3548,0.3545,0.3542,0.354,0.3539,0.2009,0.203,0.2079,0.2123,0.2167,0.2208,0.2213,0.231,0.2408,0.2559,0.2744,0.2967,0.3314,0.3688,0.3743,0.385,0.3695,0.3741,0.3672,0.349,0.3364,0.3763,0.4035,0.4035,0.4034,0.4034,0.4034,0,0.2015,0.2049,0.2097,0.2143,0.2175,0.2196,0.2257,0.2264,0.2361,0.259,0.2757,0.315,0.3428,0.3659,0.3917,0.3829,0.3615,0.3724,0.3379,0.328,0.364,0.3608,0.383,0.383,0.383,0.383,0.383,0.383,0.2026,0.207,0.2102,0.2147,0.2163,0.217,0.2178,0.2209,0.2335,0.2565,0.2789,0.2999,0.3374,0.3719,0.3757,0.3705,0.3324,0.3318,0.314,0.3327,0.3317,0.3307,0.3254,0.3398,0.3397,0.2677,0.2671,0.2668]},{"header":{"parameterUnit":"m.s-1","parameterCategory":2,"la1":30.2991,"la2":30.254,"lo1":-89.0895,"lo2":-89.0444,"dy":0.0017,"dx":0.0017,"nx":28,"ny":28,"refTime":"2025-04-11T21:00:00:Z","depth":"0","parameterNumber":3,"parameterNumberName":"V-component_of_CURRENTS"},"data":[0,0,0,0,0,0,0,0,0,0,0,0,0,0,0,0,0,0,0,0,0,0,0,0,0,0,0,0,0,0,0,0,0,0,0,0,0,0,0,0,0,0,0,0,0,0,0,0,0,0,0,0,0,0,0,0,0,0,-0.0719,-0.0719,0,-0.0799,-0.08,-0.0801,-0.0854,-0.0854,-0.0855,-0.0855,-0.0904,-0.0905,-0.0906,0,0,0,0,0,0,0,0,0,0,0,0,0,-0.0624,-0.0625,-0.0718,-0.0719,-0.072,-0.0799,-0.08,-0.0801,-0.0854,-0.0854,-0.0855,-0.0855,-0.0904,-0.0905,-0.0906,0,0,0,0,0,0,0,0,0,0,0,0,0,-0.0682,-0.0626,-0.0718,-0.0756,-0.076,-0.0799,-0.08,-0.0802,-0.0854,-0.0854,-0.0855,-0.0855,-0.0903,-0.0905,-0.0906,-0.0908,0,0,-0.0911,-0.0912,0,0,0,0,0,0,0,0,-0.0678,-0.0685,-0.0749,-0.0753,-0.0758,-0.0816,-0.0785,-0.0835,-0.0854,-0.0819,-0.0855,-0.0855,-0.0871,-0.0875,-0.0891,-0.091,-0.0912,-0.0911,-0.0912,-0.0913,-0.0913,0,0,0,0,0,0,0,-0.0674,-0.0682,-0.0751,-0.075,-0.0755,-0.0773,-0.0781,-0.0795,-0.0842,-0.0822,-0.0826,-0.0833,-0.0873,-0.0889,-0.0892,-0.0913,-0.0911,-0.0913,-0.0914,-0.0914,-0.0971,-0.0972,0,0,0,0,0,0,-0.0662,-0.0678,-0.0749,-0.0754,-0.0717,-0.0774,-0.0784,-0.0798,-0.0842,-0.085,-0.0833,-0.0836,-0.0887,-0.0891,-0.0894,-0.0912,-0.0913,-0.0914,-0.0915,-0.0971,-0.0972,-0.0972,0,0,0,0,0,0,-0.0659,-0.0667,-0.0745,-0.0717,-0.0728,-0.0775,-0.079,-0.0799,-0.0817,-0.0851,-0.0858,-0.0842,-0.0887,-0.0892,-0.0914,-0.0914,-0.0915,-0.0917,-0.097,-0.0971,-0.0972,-0.0939,0,0,0,0,0,0,-0.0656,-0.0666,-0.0667,-0.0716,-0.0729,-0.0762,-0.079,-0.08,-0.082,-0.0825,-0.086,-0.0866,-0.0888,-0.0911,-0.0915,-0.0916,-0.0918,-0.0969,-0.0971,-0.0972,-0.094,-0.0939,-0.0938,0,0,0,0,0,-0.0653,-0.0648,-0.0666,-0.0675,-0.073,-0.0761,-0.0769,-0.0805,-0.082,-0.0823,-0.0856,-0.0865,-0.0921,-0.0913,-0.0917,-0.0919,-0.0969,-0.097,-0.0971,-0.094,-0.0939,-0.0938,0,0,0,0,0,0,-0.0596,-0.0654,-0.0675,-0.0686,-0.0719,-0.077,-0.0773,-0.0801,-0.083,-0.0833,-0.0868,-0.0876,-0.0896,-0.0913,-0.0903,-0.0941,-0.0948,-0.095,-0.0922,-0.0922,-0.0921,-0.0893,-0.0919,0,0,0,0,0,-0.0586,-0.0604,-0.0656,-0.0661,-0.0677,-0.0725,-0.0741,-0.0767,-0.0802,-0.0816,-0.0844,-0.0876,-0.0905,-0.0917,-0.0941,-0.0956,-0.0966,-0.0963,-0.0962,-0.0961,-0.0944,-0.0984,-0.0985,-0.0976,-0.0976,-0.0976,0,0,-0.0561,-0.0597,-0.0604,-0.0651,-0.068,-0.0693,-0.0736,-0.0756,-0.0765,-0.0814,-0.0831,-0.087,-0.0909,-0.0932,-0.0942,-0.0945,-0.0966,-0.0963,-0.0962,-0.0944,-0.0985,-0.0986,-0.0987,-0.0977,-0.0977,-0.0977,0,0,-0.052,-0.0556,-0.0558,-0.0587,-0.063,-0.0662,-0.0666,-0.0718,-0.074,-0.0764,-0.0808,-0.0847,-0.0882,-0.0919,-0.0939,-0.0948,-0.0961,-0.096,-0.0932,-0.0972,-0.0973,-0.0973,-0.0969,-0.097,-0.096,-0.096,-0.096,0,-0.0483,-0.05,-0.0558,-0.0567,-0.0581,-0.0644,-0.064,-0.0674,-0.0725,-0.0741,-0.076,-0.0838,-0.0874,-0.0911,-0.0922,-0.0943,-0.0955,-0.093,-0.0969,-0.097,-0.0972,-0.0967,-0.0968,-0.0959,-0.0959,-0.0959,-0.0959,0,-0.0452,-0.0462,-0.0462,-0.05,-0.0522,-0.0528,-0.0584,-0.0607,-0.0643,-0.0682,-0.0726,-0.0789,-0.0834,-0.0862,-0.0894,-0.0927,-0.0927,-0.0962,-0.0966,-0.097,-0.0966,-0.0967,-0.0957,-0.0957,-0.0958,-0.0958,0,0,-0.0369,-0.0427,-0.0425,-0.0428,-0.0487,-0.0496,-0.0519,-0.0556,-0.0562,-0.0629,-0.0643,-0.0723,-0.0768,-0.0796,-0.0853,-0.0894,-0.0917,-0.0928,-0.0931,-0.0911,-0.0973,-0.0881,-0.0873,-0.0965,-0.0966,-0.0967,-0.0959,0,-0.0319,-0.0317,-0.0364,-0.0349,-0.0349,-0.0415,-0.0425,-0.0471,-0.0518,-0.055,-0.0636,-0.0669,-0.0741,-0.0762,-0.0821,-0.0892,-0.0923,-0.0913,-0.0981,-0.0982,-0.0891,-0.0873,-0.0788,-0.0766,-0.0961,-0.0961,-0.0962,0,-0.0268,-0.0275,-0.0256,-0.0276,-0.028,-0.0283,-0.0312,-0.0332,-0.0406,-0.0442,-0.0511,-0.0577,-0.065,-0.071,-0.0825,-0.0817,-0.0884,-0.0941,-0.0944,-0.0865,-0.0892,-0.0799,-0.0762,-0.0979,-0.0964,-0.0964,-0.0964,0,-0.0181,-0.0193,-0.0172,-0.0181,-0.0219,-0.0217,-0.0236,-0.0296,-0.0295,-0.0373,-0.0371,-0.0493,-0.0513,-0.0646,-0.0756,-0.0799,-0.086,-0.0938,-0.0913,-0.0907,-0.0847,-0.0834,-0.1014,-0.1009,-0.1009,-0.1009,-0.1009,0,-0.011,-0.0087,-0.0128,-0.0116,-0.008,-0.0138,-0.0111,-0.0153,-0.0188,-0.0146,-0.0303,-0.0277,-0.0498,-0.0561,-0.0709,-0.0779,-0.0822,-0.0883,-0.0897,-0.0831,-0.0816,-0.1012,-0.1141,-0.1009,-0.1009,-0.1009,-0.1009,0,-0.0012,-0.0045,-0.0014,-0.0038,-0.004,-0.0013,-0.0015,0.0011,-0.0041,0.0011,0.0003,-0.01,-0.0156,-0.0348,-0.0519,-0.0661,-0.0858,-0.0795,-0.0671,-0.067,-0.0861,-0.0988,-0.1113,-0.1194,-0.0782,-0.078,-0.0778,0,0.0045,0.0062,0.0058,0.0087,0.0083,0.0106,0.0134,0.0089,0.0138,0.0156,0.0215,0.0167,0.0197,-0.0023,-0.0267,-0.0471,-0.0715,-0.0571,-0.0649,-0.0833,-0.0989,-0.1085,-0.1155,-0.0561,-0.0557,-0.0554,-0.0552,0,0.0161,0.0149,0.0173,0.0225,0.0262,0.0307,0.0355,0.0419,0.0419,0.0494,0.0624,0.0652,0.0475,0.0338,0.003,-0.0166,-0.0689,-0.0514,-0.0765,-0.0859,-0.0918,-0.1013,-0.059,-0.0525,-0.0528,-0.053,-0.0531,-0.0532,0.0263,0.0307,0.0335,0.0391,0.0438,0.0536,0.0615,0.0707,0.0845,0.1011,0.1003,0.1132,0.0838,0.0459,0.015,-0.0392,-0.0456,-0.0586,-0.0729,-0.0813,-0.0883,-0.0359,-0.0278,-0.0279,-0.028,-0.0281,-0.0282,0,0.0401,0.044,0.0504,0.0585,0.0676,0.0655,0.0789,0.0894,0.1122,0.1315,0.1475,0.1486,0.1093,0.0582,-0.0115,-0.0543,-0.076,-0.0824,-0.1004,-0.1072,-0.0652,-0.0635,-0.0554,-0.0554,-0.0554,-0.0554,-0.0553,-0.0553,0.0487,0.0583,0.0606,0.079,0.0849,0.0989,0.108,0.1244,0.1405,0.17,0.1857,0.1944,0.1533,0.0241,-0.0699,-0.0933,-0.1316,-0.1314,-0.1549,-0.1339,-0.1332,-0.1324,-0.1343,-0.1412,-0.1413,-0.1895,-0.19,-0.1904]}],[{"header":{"parameterUnit":"m.s-1","parameterCategory":2,"la1":30.2991,"la2":30.254,"lo1":-89.0895,"lo2":-89.0444,"dy":0.0017,"dx":0.0017,"nx":28,"ny":28,"refTime":"2025-04-11T21:00:00:Z","depth":"2","parameterNumber":2,"parameterNumberName":"U-component_of_CURRENTS"},"data":[0,0,0,0,0,0,0,0,0,0,0,0,0,0,0,0,0,0,0,0,0,0,0,0,0,0,0,0,0,0,0,0,0,0,0,0,0,0,0,0,0,0,0,0,0,0,0,0,0,0,0,0,0,0,0,0,0,0,0.1641,0.1642,0,0.1673,0.1673,0.1673,0.1664,0.1664,0.1663,0.1663,0.165,0.165,0.165,0,0,0,0,0,0,0,0,0,0,0,0,0,0.1558,0.156,0.1641,0.1642,0.1642,0.1673,0.1673,0.1673,0.1664,0.1664,0.1663,0.1663,0.165,0.165,0.165,0,0,0,0,0,0,0,0,0,0,0,0,0,0.1589,0.156,0.1641,0.1644,0.1645,0.1673,0.1673,0.1673,0.1664,0.1664,0.1663,0.1663,0.165,0.165,0.165,0.1659,0,0,0.165,0.165,0,0,0,0,0,0,0,0,0.1588,0.1592,0.1643,0.1644,0.1645,0.1667,0.1639,0.1667,0.1664,0.1653,0.1663,0.1662,0.1654,0.1654,0.1656,0.1659,0.1658,0.165,0.165,0.165,0.165,0,0,0,0,0,0,0,0.1585,0.159,0.165,0.1644,0.1645,0.1639,0.1643,0.1644,0.1652,0.1654,0.1654,0.1664,0.1654,0.1657,0.1656,0.1658,0.165,0.165,0.165,0.165,0.172,0.1722,0,0,0,0,0,0,0.159,0.1589,0.1649,0.1651,0.1618,0.1642,0.1645,0.1658,0.1653,0.1654,0.1664,0.1663,0.1657,0.1656,0.1655,0.1701,0.165,0.165,0.165,0.1718,0.1721,0.1723,0,0,0,0,0,0,0.1588,0.1595,0.1648,0.1623,0.163,0.1644,0.1657,0.1659,0.1667,0.1662,0.1661,0.1672,0.1656,0.1656,0.1669,0.1699,0.165,0.165,0.1716,0.1719,0.1722,0.1769,0,0,0,0,0,0,0.1586,0.1594,0.1605,0.1624,0.1632,0.1673,0.1658,0.166,0.1675,0.1674,0.1669,0.1667,0.1656,0.167,0.1669,0.1698,0.1649,0.1714,0.1717,0.1721,0.1765,0.1773,0.178,0,0,0,0,0,0.1583,0.1599,0.1606,0.1613,0.1646,0.1675,0.1678,0.1683,0.1676,0.1686,0.1685,0.1667,0.1693,0.1671,0.167,0.1699,0.1712,0.1716,0.172,0.1762,0.1771,0.178,0,0,0,0,0,0,0.1567,0.1601,0.1608,0.1634,0.1658,0.1674,0.1687,0.169,0.1697,0.1695,0.1682,0.1681,0.1706,0.17,0.1677,0.1734,0.1703,0.1708,0.1735,0.1744,0.1752,0.1767,0.1649,0,0,0,0,0,0.1572,0.1593,0.1623,0.1645,0.1658,0.1674,0.1686,0.1692,0.1703,0.1705,0.1704,0.171,0.1724,0.173,0.1737,0.1763,0.1788,0.1786,0.1794,0.18,0.1815,0.1877,0.1891,0.1737,0.1737,0.1737,0,0,0.1572,0.1594,0.1606,0.1643,0.166,0.1689,0.1679,0.1704,0.173,0.1703,0.1732,0.1731,0.1736,0.1767,0.1779,0.1765,0.1862,0.1806,0.1811,0.1822,0.1883,0.1898,0.1911,0.174,0.1739,0.1739,0,0,0.1586,0.1605,0.1629,0.1653,0.1688,0.1702,0.1712,0.1737,0.175,0.1779,0.1772,0.1795,0.1806,0.1826,0.1834,0.1891,0.1896,0.1892,0.1943,0.2003,0.2016,0.2028,0.2095,0.2113,0.1899,0.1899,0.1899,0,0.1585,0.1621,0.164,0.1671,0.1695,0.171,0.1742,0.1763,0.179,0.1814,0.1795,0.1846,0.1841,0.1898,0.1915,0.1908,0.1944,0.1902,0.2013,0.2025,0.2036,0.2102,0.212,0.1902,0.1902,0.1901,0.1901,0,0.1616,0.1649,0.1666,0.1712,0.174,0.1769,0.1805,0.1833,0.1847,0.1872,0.1927,0.193,0.1965,0.1969,0.1954,0.2037,0.2037,0.201,0.1986,0.2054,0.212,0.2138,0.1906,0.1905,0.1904,0.1903,0,0,0.1598,0.1674,0.168,0.1712,0.1764,0.1789,0.1842,0.19,0.194,0.1972,0.2033,0.206,0.2068,0.208,0.2075,0.2122,0.2226,0.2101,0.2103,0.2163,0.2374,0.2348,0.2366,0.2215,0.2218,0.222,0.2393,0,0.1616,0.168,0.1715,0.1775,0.181,0.185,0.1898,0.1953,0.1993,0.2054,0.2092,0.2138,0.211,0.2127,0.2176,0.2205,0.2275,0.2183,0.2304,0.2308,0.2272,0.2386,0.2168,0.2301,0.2411,0.2414,0.2416,0,0.1627,0.1672,0.1736,0.1814,0.1833,0.1873,0.1954,0.2001,0.2093,0.2127,0.2193,0.2216,0.2299,0.2255,0.238,0.2322,0.2364,0.2388,0.2394,0.2367,0.2316,0.2249,0.233,0.2447,0.2444,0.2442,0.244,0,0.1596,0.1682,0.1735,0.1761,0.1851,0.1893,0.1941,0.2026,0.2076,0.2181,0.2229,0.2321,0.2376,0.2441,0.2506,0.2447,0.265,0.257,0.2602,0.26,0.2438,0.2417,0.2686,0.2686,0.2685,0.2685,0.2684,0,0.1592,0.1634,0.1728,0.1754,0.1817,0.1886,0.1958,0.2018,0.2116,0.2205,0.2265,0.2359,0.2425,0.2541,0.2572,0.2671,0.2718,0.265,0.2656,0.245,0.243,0.2559,0.2542,0.2691,0.269,0.2689,0.2688,0,0.155,0.1612,0.1673,0.1772,0.1805,0.1848,0.1955,0.201,0.2106,0.2227,0.2268,0.2415,0.2568,0.2652,0.2785,0.2764,0.2848,0.2876,0.2642,0.2617,0.2736,0.2719,0.2905,0.2906,0.2906,0.2907,0.2907,0,0.1538,0.1566,0.1666,0.1704,0.1753,0.1829,0.1882,0.1987,0.2061,0.2276,0.2342,0.2528,0.2656,0.2844,0.2857,0.2936,0.2959,0.2765,0.26,0.2778,0.2765,0.2747,0.273,0.2413,0.2409,0.2406,0.2404,0,0.1508,0.1543,0.1593,0.1665,0.1727,0.1799,0.1897,0.1946,0.2107,0.2213,0.2407,0.2528,0.2722,0.2705,0.2804,0.2808,0.2719,0.2707,0.2989,0.2385,0.2326,0.2309,0.2306,0.2378,0.238,0.2382,0.2384,0.2385,0.1479,0.1497,0.156,0.1624,0.1697,0.1771,0.1798,0.1925,0.203,0.2156,0.2342,0.2424,0.2501,0.2512,0.2518,0.2507,0.2655,0.2507,0.2511,0.2519,0.2425,0.237,0.2414,0.2417,0.2419,0.2421,0.2423,0,0.1428,0.1465,0.1519,0.1587,0.163,0.1708,0.1807,0.1817,0.1917,0.203,0.2139,0.201,0.2061,0.2157,0.21,0.2135,0.206,0.2057,0.1919,0.1949,0.1975,0.1846,0.1685,0.1682,0.168,0.1678,0,0,0.1403,0.1419,0.1444,0.1495,0.1561,0.159,0.1628,0.167,0.1726,0.1702,0.17,0.1849,0.2032,0.1766,0.1797,0.1729,0.1804,0.1672,0.2269,0.2131,0.2153,0.2254,0.2094,0,0,0,0,0]},{"header":{"parameterUnit":"m.s-1","parameterCategory":2,"la1":30.2991,"la2":30.254,"lo1":-89.0895,"lo2":-89.0444,"dy":0.0017,"dx":0.0017,"nx":28,"ny":28,"refTime":"2025-04-11T21:00:00:Z","depth":"2","parameterNumber":3,"parameterNumberName":"V-component_of_CURRENTS"},"data":[0,0,0,0,0,0,0,0,0,0,0,0,0,0,0,0,0,0,0,0,0,0,0,0,0,0,0,0,0,0,0,0,0,0,0,0,0,0,0,0,0,0,0,0,0,0,0,0,0,0,0,0,0,0,0,0,0,0,-0.034,-0.0341,0,-0.045,-0.0452,-0.0453,-0.053,-0.053,-0.053,-0.0531,-0.0481,-0.0479,-0.0477,0,0,0,0,0,0,0,0,0,0,0,0,0,-0.0282,-0.0282,-0.034,-0.0341,-0.0343,-0.045,-0.0452,-0.0453,-0.053,-0.053,-0.0531,-0.0531,-0.0481,-0.0479,-0.0477,0,0,0,0,0,0,0,0,0,0,0,0,0,-0.0342,-0.0282,-0.034,-0.0392,-0.0398,-0.045,-0.0452,-0.0454,-0.0529,-0.053,-0.0531,-0.0531,-0.0482,-0.0479,-0.0477,-0.0448,0,0,-0.0469,-0.0468,0,0,0,0,0,0,0,0,-0.0339,-0.0344,-0.0383,-0.0389,-0.0395,-0.0475,-0.0413,-0.0443,-0.0529,-0.0481,-0.0531,-0.0532,-0.0462,-0.0461,-0.0485,-0.0445,-0.0443,-0.0469,-0.0467,-0.0466,-0.0465,0,0,0,0,0,0,0,-0.0334,-0.0341,-0.0385,-0.0385,-0.0392,-0.044,-0.0448,-0.042,-0.0465,-0.0486,-0.0491,-0.05,-0.0465,-0.0488,-0.0484,-0.0443,-0.0469,-0.0466,-0.0465,-0.0464,-0.043,-0.0431,0,0,0,0,0,0,-0.0312,-0.0336,-0.0382,-0.0389,-0.0366,-0.044,-0.045,-0.045,-0.0469,-0.0474,-0.05,-0.0503,-0.0492,-0.0487,-0.0482,-0.0486,-0.0466,-0.0463,-0.0462,-0.043,-0.043,-0.0431,0,0,0,0,0,0,-0.031,-0.0315,-0.0377,-0.0364,-0.0375,-0.0439,-0.044,-0.0452,-0.0488,-0.0481,-0.0483,-0.0524,-0.0492,-0.0486,-0.0483,-0.0483,-0.0462,-0.046,-0.0429,-0.043,-0.0431,-0.0468,0,0,0,0,0,0,-0.0308,-0.0313,-0.0319,-0.0362,-0.0375,-0.0404,-0.044,-0.0454,-0.0491,-0.0497,-0.0501,-0.0498,-0.0492,-0.0487,-0.048,-0.0479,-0.0458,-0.0428,-0.0429,-0.043,-0.0466,-0.047,-0.0474,0,0,0,0,0,-0.0305,-0.0299,-0.0319,-0.0325,-0.0377,-0.0403,-0.0415,-0.0464,-0.0491,-0.0501,-0.0521,-0.0499,-0.049,-0.0485,-0.0477,-0.0475,-0.0427,-0.0429,-0.043,-0.0464,-0.0469,-0.0474,0,0,0,0,0,0,-0.027,-0.0307,-0.033,-0.0334,-0.0367,-0.0416,-0.0432,-0.0466,-0.0496,-0.05,-0.0505,-0.0502,-0.0502,-0.0482,-0.0478,-0.0472,-0.0455,-0.0455,-0.0483,-0.0487,-0.0491,-0.0478,-0.0456,0,0,0,0,0,-0.0265,-0.0277,-0.0314,-0.0321,-0.0332,-0.0386,-0.0409,-0.0437,-0.0464,-0.0481,-0.0495,-0.05,-0.05,-0.049,-0.0486,-0.0471,-0.0463,-0.0466,-0.047,-0.0473,-0.0459,-0.0471,-0.0475,-0.0436,-0.0436,-0.0436,0,0,-0.0252,-0.0276,-0.0284,-0.0316,-0.0346,-0.0354,-0.0401,-0.0426,-0.0442,-0.0463,-0.0492,-0.0511,-0.0502,-0.0505,-0.0501,-0.0487,-0.0483,-0.0475,-0.0478,-0.0461,-0.0473,-0.0477,-0.048,-0.0437,-0.0437,-0.0437,0,0,-0.0228,-0.0253,-0.0255,-0.0274,-0.0313,-0.0339,-0.0344,-0.0398,-0.0433,-0.0457,-0.0487,-0.0512,-0.0506,-0.0517,-0.0514,-0.0528,-0.051,-0.0526,-0.0525,-0.0538,-0.0541,-0.0544,-0.0551,-0.0554,-0.0522,-0.0522,-0.0522,0,-0.0212,-0.0218,-0.0259,-0.0261,-0.0271,-0.0327,-0.032,-0.0359,-0.0412,-0.0431,-0.0461,-0.0507,-0.051,-0.0514,-0.0538,-0.0534,-0.054,-0.0509,-0.0543,-0.0545,-0.0547,-0.0554,-0.0557,-0.0524,-0.0524,-0.0523,-0.0523,0,-0.0185,-0.0193,-0.0191,-0.0212,-0.0227,-0.0229,-0.0273,-0.0301,-0.0352,-0.0396,-0.044,-0.0483,-0.0503,-0.0523,-0.0536,-0.0553,-0.0554,-0.0554,-0.0531,-0.0553,-0.0559,-0.0561,-0.0527,-0.0526,-0.0525,-0.0525,0,0,-0.0128,-0.0166,-0.0163,-0.0167,-0.0199,-0.0202,-0.022,-0.0251,-0.0259,-0.0345,-0.0366,-0.043,-0.0479,-0.0481,-0.0518,-0.0546,-0.0586,-0.0561,-0.0561,-0.0566,-0.0616,-0.0571,-0.0569,-0.0599,-0.06,-0.06,-0.0619,0,-0.0093,-0.0085,-0.0114,-0.0099,-0.0094,-0.0135,-0.0144,-0.018,-0.0227,-0.0261,-0.0343,-0.0376,-0.0454,-0.0473,-0.052,-0.0565,-0.0591,-0.058,-0.0593,-0.0593,-0.0549,-0.057,-0.0574,-0.0587,-0.0621,-0.0621,-0.0621,0,-0.0047,-0.0052,-0.0034,-0.0045,-0.0044,-0.0044,-0.0052,-0.0071,-0.0126,-0.0166,-0.0233,-0.0293,-0.0368,-0.0421,-0.0525,-0.0519,-0.0566,-0.0608,-0.061,-0.0549,-0.0551,-0.0568,-0.059,-0.0625,-0.0624,-0.0624,-0.0624,0,0.0015,0.0011,0.0025,0.0023,0.0002,0.0003,-0.0011,-0.0046,-0.0049,-0.0111,-0.0113,-0.0224,-0.0256,-0.0363,-0.0471,-0.0499,-0.0562,-0.06,-0.0603,-0.06,-0.0593,-0.0588,-0.0648,-0.0648,-0.0648,-0.0648,-0.0648,0,0.0069,0.0083,0.0052,0.0062,0.0088,0.0052,0.0073,0.0046,0.0026,0.0055,-0.007,-0.0055,-0.0243,-0.0304,-0.0429,-0.0516,-0.0528,-0.0596,-0.0599,-0.0606,-0.0603,-0.062,-0.0617,-0.0648,-0.0648,-0.0648,-0.0648,0,0.0129,0.0109,0.0127,0.0113,0.0113,0.0128,0.013,0.015,0.0117,0.016,0.0147,0.0071,0.0001,-0.0166,-0.0301,-0.0424,-0.0529,-0.0544,-0.0537,-0.0538,-0.0576,-0.0575,-0.0572,-0.0571,-0.057,-0.0569,-0.0568,0,0.0154,0.0168,0.0171,0.019,0.0181,0.0195,0.0214,0.019,0.023,0.0262,0.0304,0.0254,0.025,0.0044,-0.0186,-0.0384,-0.0421,-0.05,-0.0553,-0.0564,-0.0567,-0.0568,-0.0568,-0.0573,-0.0572,-0.0572,-0.0571,0,0.0205,0.0204,0.0217,0.0254,0.0276,0.0319,0.0352,0.0404,0.0418,0.047,0.0562,0.0565,0.0383,0.0175,-0.0101,-0.0242,-0.0485,-0.0489,-0.0502,-0.0575,-0.0561,-0.0566,-0.0567,-0.0566,-0.0566,-0.0566,-0.0567,-0.0567,0.0238,0.0261,0.0279,0.0316,0.0361,0.0444,0.0501,0.0573,0.0667,0.0753,0.0754,0.0748,0.0483,0.0131,-0.0105,-0.0371,-0.0378,-0.0504,-0.0508,-0.0513,-0.0493,-0.0476,-0.0461,-0.0461,-0.0461,-0.0461,-0.0461,0,0.0266,0.0296,0.034,0.0392,0.0462,0.0485,0.0601,0.0678,0.0826,0.0876,0.0933,0.0703,0.0466,0.0196,-0.0202,-0.0435,-0.0489,-0.0489,-0.0536,-0.0539,-0.0543,-0.0528,-0.0504,-0.0504,-0.0505,-0.0505,0,0,0.0281,0.032,0.034,0.0456,0.0525,0.0651,0.0738,0.0869,0.094,0.0988,0.096,0.0859,0.0537,0.0238,-0.0085,-0.0288,-0.0353,-0.0321,-0.0268,-0.029,-0.029,-0.0539,-0.0516,0,0,0,0,0]}],[{"header":{"parameterUnit":"m.s-1","parameterCategory":2,"la1":30.2991,"la2":30.254,"lo1":-89.0895,"lo2":-89.0444,"dy":0.0017,"dx":0.0017,"nx":28,"ny":28,"refTime":"2025-04-11T21:00:00:Z","depth":"4","parameterNumber":2,"parameterNumberName":"U-component_of_CURRENTS"},"data":[0,0,0,0,0,0,0,0,0,0,0,0,0,0,0,0,0,0,0,0,0,0,0,0,0,0,0,0,0,0,0,0,0,0,0,0,0,0,0,0,0,0,0,0,0,0,0,0,0,0,0,0,0,0,0,0,0,0,0.0896,0.0897,0,0.0971,0.0972,0.0973,0.1024,0.1024,0.1025,0.1025,0.1065,0.1066,0.1066,0,0,0,0,0,0,0,0,0,0,0,0,0,0.0784,0.0786,0.0896,0.0897,0.0898,0.0971,0.0972,0.0973,0.1024,0.1024,0.1025,0.1026,0.1065,0.1066,0.1067,0,0,0,0,0,0,0,0,0,0,0,0,0,0.0841,0.0786,0.0895,0.0934,0.0938,0.0971,0.0972,0.0973,0.1023,0.1024,0.1025,0.1026,0.1065,0.1066,0.1067,0.1055,0,0,0.1069,0.1069,0,0,0,0,0,0,0,0,0.0838,0.0845,0.0927,0.0931,0.0936,0.0991,0.0948,0.0999,0.1023,0.0989,0.1025,0.1026,0.1038,0.1041,0.1051,0.1057,0.1058,0.1069,0.107,0.107,0.107,0,0,0,0,0,0,0,0.0834,0.0842,0.0923,0.0928,0.0934,0.0944,0.0952,0.0958,0.1005,0.0992,0.0996,0.1008,0.104,0.105,0.1052,0.1059,0.1069,0.107,0.107,0.1071,0.1143,0.1144,0,0,0,0,0,0,0.0829,0.0838,0.0921,0.0926,0.0891,0.0945,0.0955,0.0971,0.1006,0.1013,0.1007,0.101,0.1048,0.1051,0.1054,0.1115,0.107,0.1071,0.1071,0.1141,0.1143,0.1144,0,0,0,0,0,0,0.0826,0.0836,0.0918,0.0885,0.0897,0.0946,0.0963,0.0972,0.1005,0.1019,0.1025,0.1034,0.1049,0.1052,0.1091,0.1114,0.1071,0.1072,0.1139,0.1142,0.1144,0.119,0,0,0,0,0,0,0.0823,0.0834,0.0851,0.0885,0.0899,0.0951,0.0963,0.0973,0.101,0.1015,0.1043,0.1047,0.105,0.109,0.1092,0.1114,0.1073,0.1138,0.114,0.1143,0.1186,0.1193,0.1199,0,0,0,0,0,0.0819,0.0837,0.0852,0.0862,0.0918,0.0952,0.0959,0.0995,0.1011,0.1027,0.1058,0.1047,0.1108,0.1092,0.1094,0.1117,0.1136,0.114,0.1143,0.1184,0.1192,0.1199,0,0,0,0,0,0,0.0795,0.0845,0.0862,0.0895,0.0927,0.0961,0.0985,0.1005,0.1042,0.1055,0.1065,0.1071,0.1116,0.111,0.1092,0.1147,0.112,0.1124,0.1151,0.1158,0.1164,0.1176,0.1073,0,0,0,0,0,0.0797,0.0827,0.0869,0.0895,0.0915,0.0952,0.0974,0.0999,0.1032,0.1051,0.1073,0.1099,0.1126,0.1138,0.1158,0.1182,0.1199,0.1198,0.1205,0.121,0.1223,0.1272,0.1284,0.1155,0.1155,0.1155,0,0,0.079,0.0827,0.0841,0.0893,0.0922,0.0952,0.0968,0.1008,0.1038,0.1047,0.1099,0.1124,0.114,0.1179,0.1196,0.1178,0.1257,0.1214,0.1218,0.1228,0.1277,0.1289,0.1301,0.1157,0.1157,0.1156,0,0,0.079,0.083,0.0853,0.0885,0.0939,0.0965,0.098,0.1029,0.1061,0.111,0.113,0.1175,0.1206,0.1229,0.1241,0.1292,0.1294,0.1294,0.133,0.1378,0.1389,0.1399,0.1441,0.1455,0.1291,0.1291,0.1291,0,0.0778,0.0821,0.0863,0.0895,0.0924,0.0972,0.0998,0.1035,0.1092,0.1123,0.1135,0.1225,0.1233,0.1288,0.131,0.1306,0.1334,0.1297,0.1386,0.1396,0.1406,0.1447,0.1461,0.1293,0.1293,0.1293,0.1293,0,0.0792,0.0833,0.0852,0.091,0.0943,0.0978,0.1031,0.1075,0.1122,0.1161,0.1243,0.128,0.1333,0.1341,0.1342,0.1412,0.1412,0.1393,0.1366,0.1422,0.1462,0.1476,0.1297,0.1296,0.1295,0.1295,0,0,0.0741,0.0841,0.0847,0.088,0.0958,0.0981,0.1043,0.1107,0.1154,0.1228,0.1296,0.1359,0.1398,0.1416,0.1431,0.1472,0.1559,0.1464,0.1466,0.1505,0.1674,0.1551,0.1554,0.156,0.1562,0.1564,0.1677,0,0.0738,0.0797,0.0851,0.0903,0.0937,0.1004,0.1056,0.1122,0.1188,0.1265,0.1339,0.1413,0.142,0.1461,0.1507,0.1548,0.1598,0.153,0.1616,0.1618,0.1501,0.1567,0.1572,0.1687,0.169,0.1693,0.1694,0,0.0726,0.0775,0.0825,0.0914,0.0935,0.0974,0.1066,0.1125,0.1239,0.1292,0.1389,0.1456,0.1554,0.1544,0.1666,0.1627,0.1662,0.1689,0.1693,0.1572,0.1521,0.1619,0.1719,0.1717,0.1716,0.1714,0.1712,0,0.0663,0.0752,0.0794,0.0823,0.0929,0.0968,0.1032,0.1135,0.12,0.1327,0.1399,0.1512,0.1596,0.1665,0.1736,0.1716,0.1855,0.1825,0.1754,0.1746,0.1802,0.179,0.1915,0.1915,0.1915,0.1915,0.1914,0,0.0635,0.0667,0.0772,0.0795,0.085,0.094,0.1012,0.1087,0.1216,0.1293,0.1423,0.1503,0.1635,0.1732,0.177,0.1806,0.1889,0.178,0.1771,0.1818,0.1807,0.1812,0.1798,0.1919,0.1918,0.1917,0.1916,0,0.0558,0.063,0.0677,0.0786,0.0824,0.0863,0.0998,0.1054,0.119,0.1301,0.1359,0.1532,0.1645,0.1756,0.1866,0.1842,0.1885,0.1875,0.1934,0.1924,0.174,0.1728,0.1814,0.1811,0.1808,0.1806,0.1804,0,0.0529,0.0546,0.0648,0.0675,0.0727,0.0807,0.0867,0.1016,0.1075,0.1297,0.1338,0.1521,0.1615,0.1696,0.179,0.1868,0.1848,0.187,0.1794,0.1749,0.1733,0.1725,0.1716,0.1799,0.1799,0.1798,0.1797,0,0.0461,0.0495,0.0536,0.0594,0.0651,0.0718,0.0814,0.0855,0.1032,0.117,0.1299,0.141,0.1531,0.1622,0.1699,0.1742,0.1852,0.184,0.1845,0.1774,0.1732,0.1717,0.1712,0.1787,0.1789,0.179,0.179,0,0.0405,0.0405,0.046,0.0504,0.0578,0.063,0.0683,0.078,0.0878,0.1121,0.1146,0.1347,0.1489,0.1557,0.1619,0.1661,0.1642,0.1603,0.162,0.1632,0.1521,0.1437,0.1411,0,0,0,0,0,0.0359,0.0352,0.0372,0.0419,0.0491,0.0546,0.0659,0.072,0.0886,0.0942,0.105,0.1158,0.1301,0.1396,0.1407,0.1534,0.1634,0.154,0.1592,0.1733,0.1745,0.163,0,0,0,0,0,0,0.0325,0.0337,0.0341,0.0359,0.0383,0.0459,0.0538,0.0637,0.0673,0.0849,0.0924,0.1078,0.1217,0.1275,0.1379,0.1409,0.1419,0.1657,0.1655,0.1727,0.1737,0.1746,0.1633,0,0,0,0,0]},{"header":{"parameterUnit":"m.s-1","parameterCategory":2,"la1":30.2991,"la2":30.254,"lo1":-89.0895,"lo2":-89.0444,"dy":0.0017,"dx":0.0017,"nx":28,"ny":28,"refTime":"2025-04-11T21:00:00:Z","depth":"4","parameterNumber":3,"parameterNumberName":"V-component_of_CURRENTS"},"data":[0,0,0,0,0,0,0,0,0,0,0,0,0,0,0,0,0,0,0,0,0,0,0,0,0,0,0,0,0,0,0,0,0,0,0,0,0,0,0,0,0,0,0,0,0,0,0,0,0,0,0,0,0,0,0,0,0,0,0.0107,0.0106,0,0.0074,0.0074,0.0074,0.0057,0.0057,0.0057,0.0057,0.0015,0.0014,0.0013,0,0,0,0,0,0,0,0,0,0,0,0,0,0.012,0.012,0.0107,0.0106,0.0106,0.0074,0.0074,0.0073,0.0057,0.0057,0.0057,0.0057,0.0015,0.0014,0.0013,0,0,0,0,0,0,0,0,0,0,0,0,0,0.0104,0.012,0.0107,0.0094,0.0092,0.0074,0.0074,0.0073,0.0057,0.0057,0.0057,0.0057,0.0016,0.0014,0.0013,0.0004,0,0,0.0008,0.0007,0,0,0,0,0,0,0,0,0.0105,0.0103,0.0096,0.0095,0.0093,0.0069,0.0063,0.005,0.0057,0.007,0.0057,0.0057,0.0032,0.0029,0.0024,0.0002,-0.0,0.0008,0.0007,0.0006,0.0006,0,0,0,0,0,0,0,0.0106,0.0104,0.0094,0.0096,0.0094,0.0078,0.0076,0.0061,0.0052,0.0069,0.0068,0.0064,0.0032,0.0025,0.0023,-0.0001,0.0008,0.0006,0.0005,0.0005,-0.0024,-0.0024,0,0,0,0,0,0,0.0112,0.0106,0.0095,0.0093,0.0099,0.0078,0.0075,0.0077,0.0052,0.0048,0.0064,0.0063,0.0028,0.0024,0.0021,0.0019,0.0006,0.0004,0.0004,-0.0024,-0.0024,-0.0024,0,0,0,0,0,0,0.0112,0.0111,0.0096,0.0098,0.0095,0.0078,0.008,0.0076,0.007,0.0048,0.0045,0.0061,0.0028,0.0023,0.0005,0.0017,0.0004,0.0002,-0.0025,-0.0024,-0.0024,0.0007,0,0,0,0,0,0,0.0113,0.0112,0.0113,0.0099,0.0095,0.0089,0.0079,0.0076,0.0068,0.0067,0.0045,0.0041,0.0027,0.0008,0.0004,0.0014,0.0001,-0.0025,-0.0024,-0.0024,0.0006,0.0009,0.0011,0,0,0,0,0,0.0114,0.0117,0.0114,0.0112,0.0099,0.0089,0.0086,0.0073,0.0068,0.0067,0.0049,0.0041,0.0008,0.0006,0.0002,0.0012,-0.0025,-0.0025,-0.0024,0.0005,0.0008,0.0011,0,0,0,0,0,0,0.0119,0.0115,0.0111,0.0112,0.0102,0.0086,0.0083,0.0074,0.0059,0.0057,0.0037,0.0032,0.0021,0.001,0.0009,0.0005,-0.0007,-0.0008,0.0017,0.002,0.0022,0.0037,-0.0,0,0,0,0,0,0.0122,0.0126,0.0116,0.0115,0.0113,0.0098,0.0092,0.0084,0.007,0.0063,0.0048,0.0033,0.002,0.0014,-0.0001,-0.0006,-0.0018,-0.0001,0.0002,0.0004,0.0013,0.0009,0.0012,-0.0022,-0.0022,-0.0022,0,0,0.0122,0.0121,0.0122,0.0117,0.0109,0.011,0.0095,0.0088,0.009,0.0061,0.0056,0.0037,0.0018,0.0012,0.0008,0.0005,0.0003,0.0004,0.0006,0.0014,0.001,0.0013,0.0016,-0.0022,-0.0022,-0.0022,0,0,0.0127,0.0126,0.0132,0.013,0.0122,0.0116,0.0116,0.0102,0.0098,0.0086,0.007,0.0057,0.0035,0.0029,0.0023,0.0029,0.0013,0.0026,0.0055,0.0051,0.0054,0.0056,0.0029,0.0029,0.0032,0.0032,0.0032,0,0.0126,0.0135,0.013,0.0137,0.0138,0.0122,0.0129,0.0122,0.0104,0.0107,0.0089,0.0069,0.0046,0.0052,0.0051,0.0037,0.0024,0.0045,0.0055,0.0057,0.0059,0.0031,0.0031,0.0033,0.0033,0.0033,0.0033,0,0.0137,0.0145,0.0149,0.0157,0.0158,0.0159,0.0155,0.0156,0.0145,0.0139,0.0136,0.0106,0.0099,0.0088,0.0067,0.0078,0.0059,0.0055,0.0049,0.0065,0.0034,0.0033,0.0036,0.0035,0.0035,0.0034,0,0,0.0126,0.0153,0.0152,0.0168,0.017,0.0175,0.0185,0.0192,0.0211,0.0185,0.0204,0.0171,0.0159,0.0151,0.0129,0.0121,0.0108,0.0096,0.0095,0.0073,0.0084,0.0022,0.0014,0.0108,0.0109,0.0109,0.005,0,0.0133,0.016,0.0169,0.0193,0.0207,0.021,0.0229,0.0237,0.0235,0.0248,0.0224,0.0226,0.0183,0.0183,0.0168,0.0127,0.011,0.0124,0.0069,0.0067,0.0014,0.0013,0.0111,0.0049,0.0049,0.0048,0.0048,0,0.0136,0.0157,0.0185,0.023,0.0238,0.0254,0.0291,0.0305,0.0322,0.0324,0.0322,0.03,0.0281,0.0245,0.0186,0.0197,0.0144,0.0106,0.0103,0.0038,0.0004,0.0034,0.0046,0.0046,0.0047,0.0047,0.0047,0,0.013,0.0168,0.0196,0.0207,0.0251,0.0274,0.03,0.0328,0.0357,0.0374,0.0389,0.0365,0.0348,0.0295,0.0195,0.0198,0.0123,0.0119,0.0011,0.0005,0.0066,0.0064,0.0081,0.0081,0.0081,0.0081,0.0081,0,0.0132,0.0151,0.0201,0.0215,0.0266,0.0293,0.035,0.0372,0.0417,0.0446,0.0429,0.0429,0.036,0.03,0.0219,0.01,0.0138,0.0013,-0.001,0.0076,0.0077,0.0063,0.0062,0.0079,0.0079,0.008,0.008,0,0.0111,0.0143,0.0178,0.0236,0.0263,0.0297,0.0383,0.0427,0.0463,0.0499,0.0505,0.0478,0.0386,0.0298,0.0194,0.0119,0.0022,-0.0031,0.0051,0.0034,-0.0098,-0.0097,-0.0143,-0.0145,-0.0147,-0.0149,-0.0151,0,0.0102,0.0118,0.0185,0.0219,0.0247,0.0315,0.0369,0.0438,0.0479,0.0511,0.0519,0.0456,0.041,0.0223,0.0129,-0.0028,-0.0056,-0.0101,-0.0085,-0.0101,-0.0119,-0.0114,-0.011,-0.0154,-0.0155,-0.0155,-0.0156,0,0.0078,0.0099,0.013,0.0203,0.0264,0.0342,0.0415,0.0446,0.051,0.0548,0.0513,0.0427,0.0316,0.0186,0.0057,-0.0051,-0.0061,-0.0124,-0.012,-0.0105,-0.0115,-0.013,-0.0124,-0.0164,-0.0162,-0.0162,-0.0161,0,0.0051,0.0068,0.0115,0.0183,0.0264,0.0339,0.0386,0.0431,0.048,0.051,0.0486,0.0392,0.0349,0.017,0.0055,-0.0063,-0.009,-0.0114,-0.0111,-0.0104,-0.0079,-0.0086,-0.0145,0,0,0,0,0,0.0022,0.0045,0.01,0.0177,0.026,0.0317,0.0406,0.045,0.0502,0.0472,0.0485,0.0376,0.0204,0.0143,0.001,0.0003,-0.0115,-0.0156,-0.0143,-0.0206,-0.0197,-0.0181,0,0,0,0,0,0,0.0004,0.0037,0.0081,0.0166,0.0221,0.0319,0.0379,0.0416,0.0405,0.0432,0.0341,0.0331,0.0163,0.0267,0.0,-0.0031,-0.0043,-0.0222,-0.0225,-0.0211,-0.0203,-0.0196,-0.0176,0,0,0,0,0]}]]